Regional Weather Roundup
Issued by NWS

Home | Current Version | Previous Version | Text Only | Print | Product List | Glossary On
Versions: 1 2 3 4 5 6 7 8 9 10 11 12 13 14 15 16 17 18 19 20 21 22 23 24 25 26 27 28 29 30 31 32 33 34 35 36 37 38 39 40 41 42 43 44 45 46 47 48 49 50
000
ASUS44 KJAN 290110
RWRMS

MISSISSIPPI HOURLY WEATHER ROUNDUP
NATIONAL WEATHER SERVICE JACKSON MS
800 PM CDT TUE JUL 28 2015

NOTE: "FAIR: INDICATES FEW OR NO CLOUDS BELOW 12,000 FEET WITH NO
SIGNIFICANT WEATHER AND/OR OBSTRUCTIONS TO VISIBILITY.

MSZ001>002-007>008-010>013-018>021-025>028-034>036-290200-
NORTHWEST MISSISSIPPI

CITY           SKY/WX    TMP DP  RH WIND       PRES   REMARKS
CLARKSDALE     FAIR      88  77  70 SW3       29.94S HX 100
CLEVELAND      FAIR      89  81  79 CALM      29.93S HX 107
GREENWOOD      MOCLDY    87  78  74 CALM      29.93S HX 100
GREENVILLE     CLEAR     89  78  70 S3        29.92F HX 103
OLIVE BRANCH   PTCLDY    90  75  62 SW6       29.95R HX 100
OXFORD         FAIR      84  75  74 CALM      29.97S HX  92
TUNICA         CLEAR     90  77  66 CALM      29.94S HX 102
$$

MSZ003>006-009-014>017-022>024-029>033-037>039-290200-
NORTHEAST MISSISSIPPI

CITY           SKY/WX    TMP DP  RH WIND       PRES   REMARKS
COLUMBUS AFB   CLEAR     90  77  66 N1        29.93S HX 102
CORINTH        FAIR      88  79  74 CALM      29.94S HX 102
GOLDN TRIANGLE CLEAR     91  75  59 CALM      29.94S HX 102
STARKVILLE     FAIR      82  77  83 CALM      29.95S HX  91
TUPELO         CLEAR     90  74  59 CALM      29.94  HX  99
$$

MSZ040-058-290200-
CENTRAL MISSISSIPPI

CITY           SKY/WX    TMP DP  RH WIND       PRES   REMARKS
JACKSON INTL   PTCLDY    91  72  53 NW8       29.95S HX  98
JACKSON HAWKNS CLEAR     89  73  59 NW3       29.96S HX  97
MERIDIAN KEY   PTCLDY    83  75  77 CALM      29.96R HX  90
MERIDIAN NAS   MOCLDY    84  76  76 W3        29.96R HX  93
VICKSBURG      CLEAR     85  74  69 CALM      29.94S HX  92
$$

MSZ059>079-290200-
SOUTH MISSISSIPPI

CITY           SKY/WX    TMP DP  RH WIND       PRES   REMARKS
BROOKHAVEN     FAIR      88  73  62 W5        29.99R HX  96
HATTIESBURG    CLEAR     86  77  74 CALM      29.95S HX  97
MCCOMB         CLEAR     87  77  72 CALM      29.97R HX  99
NATCHEZ        CLEAR     88  73  62 CALM      29.97R HX  96
PINE BELT      PTCLDY    86 N/A N/A SW3       29.97F
$$

MSZ080>082-290200-
COASTAL MISSISSIPPI

CITY           SKY/WX    TMP DP  RH WIND       PRES   REMARKS
BAY ST LOUIS   PTCLDY    81  72  74 CALM      29.96R
BILOXI         CLEAR     86  74  67 W2        29.95R HX  94
PASCAGOULA     CLEAR     84  75  74 SW3       29.95R HX  92
GULFPORT       CLEAR     85  74  69 CALM      29.95R HX  92
$$



USA.gov is the U.S. government's official web portal to all federal, state and local government web resources and services.